Weather History for EHGG - March, 2013

Change the Weather History Date:

Thursday, March 14, 2013

  Actual Average Record
Temperature  
Mean Temperature 30 °F -  
Max Temperature 35 °F 49 °F 57 °F (2011)
Min Temperature 23 °F 34 °F 23 °F (2013)
Degree Days  
Heating Degree Days 36    
Moisture  
Dew Point 23 °F    
Average Humidity 76    
Maximum Humidity 100    
Minimum Humidity 48    
Precipitation  
Precipitation 0.00 in 0.07 in - ()
Sea Level Pressure  
Sea Level Pressure 29.89 in    
Wind  
Wind Speed 6 mph ()    
Max Wind Speed 12 mph    
Max Gust Speed -    
Visibility 6.5 miles    
Events Rain , Snow    
Averages and records for this station are not official NWS values.
T = Trace of Precipitation, MM = Missing Value Source: Averaged Metar Reports

Daily Weather History Graph

Daily Weather History Graph

Search for Another Location

Airport or City:

Trip Planner

Search our weather history database for the weather conditions in past years. The results will help you decide how hot, cold, wet, or windy it might be!

Date:

Astronomy

Mar. 14, 2013 Rise Set
Actual Time 6:50 AM CET 6:36 PM CET
Civil Twilight 6:16 AM CET 7:10 PM CET
Nautical Twilight 5:35 AM CET 7:51 PM CET
Astronomical Twilight 4:53 AM CET 8:33 PM CET
Moon 7:28 AM CET (3/14) 10:08 PM CET (3/14)
Length of Visible Light 12h 54m
Length of Day
11h 45m
Waxing Crescent, 7% of the Moon is Illuminated
Mar 14
Waxing Crescent
Mar 19
First Quarter
Mar 27
Full
Apr 3
Last Quarter
Apr 10
New

Hourly Weather History & Observations

Time (CET) Temp. Windchill Dew Point Humidity Pressure Visibility Wind Dir Wind Speed Gust Speed Precip Events Conditions
12:25 AM 28.4 °F 22.2 °F 26.6 °F 93% 29.77 in 6.2 mi West 5.8 mph - N/A   Unknown
12:55 AM 28.4 °F 23.3 °F 26.6 °F 93% 29.77 in 6.2 mi West 4.6 mph - N/A   Unknown
1:00 AM 28 °F - 26 °F 86% 29.78 in 10 mi West 4.5 mph - -   Partly Cloudy
1:25 AM 26.6 °F - 24.8 °F 93% 29.77 in 6.2 mi Variable 2.3 mph - N/A   Unknown
1:55 AM 28.4 °F 24.6 °F 26.6 °F 93% 29.77 in 6.2 mi WNW 3.5 mph - N/A   Partly Cloudy
2:25 AM 28.4 °F 23.3 °F 26.6 °F 93% 29.77 in 6.2 mi NW 4.6 mph - N/A   Partly Cloudy
2:55 AM 28.4 °F 22.2 °F 26.6 °F 93% 29.80 in 6.2 mi NW 5.8 mph - N/A   Mostly Cloudy
3:25 AM 30.2 °F 25.4 °F 28.4 °F 93% 29.80 in 0.7 mi NNE 4.6 mph - N/A Snow Light Snow
3:55 AM 30.2 °F 26.7 °F 28.4 °F 93% 29.80 in 6.2 mi North 3.5 mph - N/A   Mostly Cloudy
4:00 AM 29 °F - 28 °F 94% 29.81 in 7 mi North 4.5 mph - - Snow Snow
4:25 AM 28.4 °F 23.3 °F 26.6 °F 93% 29.80 in 5.0 mi NNW 4.6 mph - N/A   Mostly Cloudy
4:55 AM 30.2 °F 23.4 °F 30.2 °F 100% 29.80 in 6.2 mi North 6.9 mph - N/A   Overcast
5:25 AM 32.0 °F 25.6 °F 26.6 °F 80% 29.80 in 6.2 mi NNE 6.9 mph - N/A   Overcast
5:55 AM 30.2 °F 21.9 °F 26.6 °F 86% 29.80 in 6.2 mi NE 9.2 mph - N/A   Partly Cloudy
6:25 AM 30.2 °F 25.4 °F 26.6 °F 86% 29.83 in 6.2 mi North 4.6 mph - N/A   Unknown
6:55 AM 28.4 °F 23.3 °F 24.8 °F 86% 29.83 in 6.2 mi North 4.6 mph - N/A   Scattered Clouds
7:00 AM 29 °F - 26 °F 82% 29.86 in 11 mi NNE 4.5 mph - - Rain Light Freezing Rain
7:25 AM 28.4 °F 20.4 °F 24.8 °F 86% 29.86 in 6.2 mi North 8.1 mph - N/A   Unknown
7:55 AM 30.2 °F 22.6 °F 23.0 °F 75% 29.86 in 6.2 mi NNE 8.1 mph - N/A   Unknown
8:25 AM 30.2 °F 21.9 °F 21.2 °F 69% 29.86 in 6.2 mi NNE 9.2 mph - N/A   Unknown
8:55 AM 30.2 °F 21.3 °F 21.2 °F 69% 29.86 in 6.2 mi NNE 10.4 mph - N/A   Unknown
9:25 AM 32.0 °F 23.0 °F 21.2 °F 64% 29.89 in 6.2 mi NNE 11.5 mph - N/A   Unknown
9:55 AM 32.0 °F 23.0 °F 19.4 °F 60% 29.89 in 6.2 mi NNE 11.5 mph - N/A   Unknown
10:00 AM 32 °F - 20 °F 48% 29.91 in 22 mi NNE 11.2 mph - -   Scattered Clouds
10:25 AM 32.0 °F 23.0 °F 21.2 °F 64% 29.89 in 6.2 mi NNE 11.5 mph - N/A   Partly Cloudy
10:55 AM 33.8 °F 25.3 °F 21.2 °F 60% 29.92 in 6.2 mi NE 11.5 mph - N/A   Mostly Cloudy
11:25 AM 32.0 °F 24.2 °F 21.2 °F 64% 29.92 in 6.2 mi NNE 9.2 mph - N/A   Mostly Cloudy
11:55 AM 33.8 °F 25.8 °F 21.2 °F 60% 29.92 in 6.2 mi NNE 10.4 mph - N/A   Mostly Cloudy
12:25 PM 35.6 °F 28.0 °F 24.8 °F 65% 29.92 in 6.2 mi NE 10.4 mph - N/A   Scattered Clouds
12:55 PM 33.8 °F 26.4 °F 21.2 °F 60% 29.92 in 6.2 mi North 9.2 mph - N/A   Mostly Cloudy
1:00 PM 33 °F - 21 °F 49% 29.94 in 25 mi NNE 8.9 mph - -   Partly Cloudy
1:25 PM 33.8 °F 27.0 °F 21.2 °F 60% 29.92 in 6.2 mi Variable 8.1 mph - N/A   Overcast
1:55 PM 33.8 °F 27.0 °F 21.2 °F 60% 29.92 in 6.2 mi NNW 8.1 mph - N/A   Mostly Cloudy
2:25 PM 33.8 °F 27.7 °F 23.0 °F 65% 29.92 in 6.2 mi NE 6.9 mph - N/A   Overcast
2:55 PM 33.8 °F 27.0 °F 21.2 °F 60% 29.92 in 6.2 mi North 8.1 mph - N/A   Mostly Cloudy
3:25 PM 33.8 °F 25.8 °F 21.2 °F 60% 29.92 in 6.2 mi North 10.4 mph - N/A   Mostly Cloudy
3:55 PM 33.8 °F 27.0 °F 23.0 °F 65% 29.92 in 6.2 mi North 8.1 mph - N/A   Mostly Cloudy
4:00 PM 33 °F - 23 °F 54% 29.93 in 28 mi North 8.9 mph - -   Scattered Clouds
4:25 PM 33.8 °F 27.7 °F 23.0 °F 65% 29.92 in 6.2 mi NNW 6.9 mph - N/A   Partly Cloudy
4:55 PM 33.8 °F 25.8 °F 21.2 °F 60% 29.92 in 6.2 mi North 10.4 mph - N/A   Mostly Cloudy
5:25 PM 33.8 °F 25.3 °F 21.2 °F 60% 29.92 in 6.2 mi NNW 11.5 mph - N/A   Mostly Cloudy
5:55 PM 32.0 °F 24.2 °F 21.2 °F 64% 29.95 in 6.2 mi NNW 9.2 mph - N/A   Scattered Clouds
6:25 PM 32.0 °F 28.7 °F 23.0 °F 69% 29.95 in 6.2 mi North 3.5 mph - N/A   Mostly Cloudy
6:55 PM 32.0 °F 28.7 °F 23.0 °F 69% 29.95 in 6.2 mi North 3.5 mph - N/A   Mostly Cloudy
7:00 PM 32 °F - 23 °F 60% 29.96 in 28 mi North 2.2 mph - -   Partly Cloudy
7:25 PM 32.0 °F - 24.8 °F 75% 29.95 in 6.2 mi NNW 2.3 mph - N/A   Scattered Clouds
7:55 PM 28.4 °F - 23.0 °F 80% 29.95 in 6.2 mi West 2.3 mph - N/A   Partly Cloudy
8:25 PM 28.4 °F - 21.2 °F 74% 29.95 in 6.2 mi SSW 1.2 mph - N/A   Unknown
8:55 PM 26.6 °F - 23.0 °F 86% 29.95 in 6.2 mi SSE 2.3 mph - N/A   Unknown
9:25 PM 26.6 °F - 23.0 °F 86% 29.95 in 6.2 mi Variable 1.2 mph - N/A   Unknown
9:55 PM 24.8 °F - 21.2 °F 86% 29.95 in 6.2 mi SSE 1.2 mph - N/A   Partly Cloudy
10:00 PM 25 °F - 22 °F 83% 29.97 in 17 mi SSE 2.2 mph - -   Partly Cloudy
10:25 PM 24.8 °F 20.5 °F 21.2 °F 86% 29.95 in 6.2 mi SE 3.5 mph - N/A   Partly Cloudy
10:55 PM 26.6 °F 22.6 °F 23.0 °F 86% 29.95 in 6.2 mi SSW 3.5 mph - N/A   Partly Cloudy
11:25 PM 24.8 °F - 23.0 °F 93% 29.95 in 6.2 mi South 2.3 mph - N/A   Unknown
11:55 PM 23.0 °F - 21.2 °F 93% 29.95 in 6.2 mi South 2.3 mph - N/A   Unknown